Torna al catalogo

COSMOS 1125

AttivoMilitareLEO
NORAD 11510·PAYLOAD·🇷🇺 Russia

Lanciato Aug 28, 1979 da Plesetsk Cosmodrome

Loading…

Prossimi Passaggi (prossime 24 ore)

TLE

AggiornatoSource: Space-Track

Epoca: Sep 14, 2026, 07:46 UTC

1 11510U 79078A   26257.32398306  .00000081  00000-0  38291-4 0  9991
2 11510  74.0367  12.1166 0013207 219.7990 140.2194 14.34150114458219

Traccia COSMOS 1125 in tempo reale con AllMySat

Download on the App Store